This demonstration page uses our WeatherBlox Daily Observations layout. Learn more.

Left ArrowRight Arrow

41.55636, -103.73856

Hourly Observations for November 23, 2021

Temp ( °F °C ) Dew Point ( °F °C ) Humidity (%) Winds ( mph kmh ) Pressure ( in mb ) Visibility ( mi km ) Precip ( " mm )
12:58 am 00:58 Clear 45 7 12 -11.3 26 26 NNE 5 7 29.90 1013 10 16 0.00 0.00
1:58 am 01:58 Clear 41 4.8 12 -11.3 30 30 Calm 29.89 1012 10 16 0.00 0.00
2:58 am 02:58 Clear 41 4.9 11 -11.4 30 30 SSW 7 11 29.88 1012 10 16 0.00 0.00
3:58 am 03:58 Clear 39 4 10 -12.5 29 29 WSW 10 17 29.88 1012 10 16 0.00 0.00
4:58 am 04:58 Clear 38 3.3 8 -13.4 28 28 SW 8 13 29.89 1012 10 16 0.00 0.00
5:58 am 05:58 Clear 44 6.9 5 -14.9 20 20 W 5 7 29.83 1010 10 16 0.00 0.00
6:58 am 06:58 Sunny 44 6.6 4 -15.6 19 19 SW 5 7 29.84 1010 10 16 0.00 0.00
7:58 am 07:58 Sunny 45 7.2 6 -14.6 20 20 W 3 6 29.84 1010 10 16 0.00 0.00
8:58 am 08:58 Sunny 53 11.5 11 -11.5 19 19 W 8 13 29.77 1008 10 16 0.00 0.00
9:58 am 09:58 Sunny 62 16.9 3 -16 9 9 W 12 19 29.72 1007 10 16 0.00 0.00
10:58 am 10:58 Sunny 65 18.5 4 -15.3 9 9 W 13 20 29.67 1005 10 16 0.00 0.00
11:58 am 11:58 Sunny 68 20.1 8 -13.1 9 9 WSW 12 19 29.64 1004 10 16 0.00 0.00
12:58 pm 12:58 Partly Cloudy 65 18.6 -4 -19.9 6 6 WNW 24 39 29.63 1004 10 16 0.00 0.00
1:58 pm 13:58 Partly Cloudy 64 18 1 -17.4 8 8 NNW 15 24 29.62 1003 10 16 0.00 0.00
2:58 pm 14:58 Sunny 63 17.4 -1 -18.2 7 7 NNW 15 24 29.61 1003 10 16 0.00 0.00
3:58 pm 15:58 Sunny 56 13.3 1 -17.2 10 10 NW 12 19 29.64 1004 10 16 0.00 0.00
4:58 pm 16:58 Mostly Clear 55 12.9 -1 -18.2 10 10 NW 10 17 29.67 1005 10 16 0.00 0.00
5:58 pm 17:58 Mostly Cloudy 50 10.2 2 -16.8 13 13 W 12 19 29.67 1005 10 16 0.00 0.00
6:58 pm 18:58 Mostly Cloudy 48 8.7 7 -13.8 19 19 WSW 10 17 29.67 1005 10 16 0.00 0.00
8:58 pm 20:58 Cloudy 52 11.2 13 -10.8 20 20 NW 15 24 29.61 1003 10 16 0.00 0.00
10:58 pm 22:58 Mostly Cloudy 49 9.5 13 -10.5 23 23 WNW 16 26 29.61 1003 10 16 0.00 0.00
11:58 pm 23:58 Mostly Cloudy 48 9.1 13 -10.6 24 24 WNW 22 35 29.62 1003 10 16 0.00 0.00

Powered by AerisWeather